Salina, KS

3:14 AM CDT on April 29, 2017 (GMT -0500)
Salina Municipal

Weather History for KSLN - October, 2013

Change the Weather History Date:

Tuesday, October 15, 2013

  Actual Average Record
Temperature  
Mean Temperature 53 °F 58 °F  
Max Temperature 61 °F 69 °F 91 °F (1938)
Min Temperature 44 °F 46 °F 26 °F (1952)
Degree Days  
Heating Degree Days 12 8  
Month to date heating degree days 58 96  
Since 1 July heating degree days 70 148  
Cooling Degree Days 0 1  
Month to date cooling degree days 55 26  
Year to date cooling degree days 1750 1638  
Growing Degree Days 2 (Base 50)    
Moisture  
Dew Point 38 °F    
Average Humidity 61    
Maximum Humidity 83    
Minimum Humidity 39    
Precipitation  
Precipitation 0.00 in 0.08 in 1.46 in (1963)
Month to date precipitation 0.37 1.23  
Year to date precipitation 28.24 28.27  
Sea Level Pressure  
Sea Level Pressure 30.08 in    
Wind  
Wind Speed 15 mph (NW)    
Max Wind Speed 28 mph    
Max Gust Speed 33 mph    
Visibility 10 miles    
Events      
T = Trace of Precipitation, MM = Missing Value Source: NWS Daily Summary

Daily Weather History Graph

Daily Weather History Graph

Search for Another Location

Airport or City:

Trip Planner

Search our weather history database for the weather conditions in past years. The results will help you decide how hot, cold, wet, or windy it might be!

Date:

Astronomy

Oct. 15, 2013 Rise Set
Actual Time 7:40 AM CDT 6:51 PM CDT
Civil Twilight 7:13 AM CDT 7:18 PM CDT
Nautical Twilight 6:42 AM CDT 7:49 PM CDT
Astronomical Twilight 6:11 AM CDT 8:20 PM CDT
Moon 4:56 PM CDT (10/15) 4:06 AM CDT (10/15)
Length of Visible Light 12h 05m
Length of Day
11h 11m
Waxing Gibbous, 88% of the Moon is Illuminated
Oct 15
Waxing Gibbous
Oct 18
Full
Oct 26
Last Quarter
Nov 3
New
Nov 9
First Quarter

Hourly Weather History & Observations

Time (CDT) Temp. Windchill Dew Point Humidity Pressure Visibility Wind Dir Wind Speed Gust Speed Precip Events Conditions
12:53 AM 53.1 °F - 45.0 °F 74% 29.93 in - WNW 18.4 mph 25.3 mph N/A   Clear
1:53 AM 51.1 °F - 43.0 °F 74% 29.96 in - WNW 15.0 mph - N/A   Clear
2:53 AM 48.0 °F - 42.1 °F 80% 30.00 in - West 8.1 mph - N/A   Clear
3:53 AM 46.9 °F - 41.0 °F 80% 30.01 in - WNW 9.2 mph - N/A   Clear
4:53 AM 46.0 °F 41.4 °F 39.9 °F 79% 30.02 in - WNW 9.2 mph - N/A   Clear
5:53 AM 45.0 °F 40.1 °F 39.0 °F 80% 30.04 in - WNW 9.2 mph - N/A   Clear
6:53 AM 45.0 °F 39.3 °F 37.9 °F 76% 30.06 in - WNW 11.5 mph - N/A   Clear
7:53 AM 44.1 °F 37.4 °F 37.0 °F 76% 30.07 in - WNW 13.8 mph - N/A   Clear
8:53 AM 46.9 °F - 37.9 °F 71% 30.09 in 10.0 mi WNW 13.8 mph - N/A   Clear
9:53 AM 48.9 °F - 37.0 °F 64% 30.10 in 10.0 mi NW 21.9 mph 28.8 mph N/A   Clear
10:53 AM 52.0 °F - 36.0 °F 54% 30.09 in 10.0 mi NNW 24.2 mph 33.4 mph N/A   Clear
11:53 AM 55.0 °F - 37.0 °F 51% 30.12 in 10.0 mi NW 20.7 mph 31.1 mph N/A   Clear
12:53 PM 57.9 °F - 37.9 °F 47% 30.10 in 10.0 mi NW 18.4 mph 29.9 mph N/A   Clear
1:53 PM 59.0 °F - 36.0 °F 42% 30.08 in 10.0 mi NNW 24.2 mph 29.9 mph N/A   Clear
2:53 PM 60.1 °F - 37.0 °F 42% 30.07 in 10.0 mi NNW 23.0 mph 31.1 mph N/A   Partly Cloudy
3:53 PM 60.1 °F - 36.0 °F 41% 30.07 in 10.0 mi NW 21.9 mph - N/A   Partly Cloudy
4:53 PM 57.0 °F - 35.1 °F 44% 30.08 in 10.0 mi NW 17.3 mph 27.6 mph N/A   Clear
5:10 PM 59.0 °F - 35.6 °F 42% 30.07 in 10.0 mi NNW 24.2 mph 28.8 mph N/A   Mostly Cloudy
5:53 PM 57.9 °F - 37.0 °F 46% 30.09 in 10.0 mi NW 15.0 mph - N/A   Mostly Cloudy
6:53 PM 53.1 °F - 35.1 °F 50% 30.12 in 10.0 mi NNW 16.1 mph - N/A   Mostly Cloudy
7:53 PM 53.1 °F - 36.0 °F 52% 30.14 in 10.0 mi NNW 10.4 mph - N/A   Overcast
8:53 PM 52.0 °F - 35.1 °F 53% 30.15 in 10.0 mi NNW 15.0 mph - N/A   Overcast
9:53 PM 51.1 °F - 35.1 °F 54% 30.17 in 10.0 mi NNW 17.3 mph - N/A   Overcast
10:53 PM 50.0 °F - 35.1 °F 57% 30.18 in 10.0 mi NNW 10.4 mph - N/A   Overcast
11:53 PM 48.9 °F - 34.0 °F 56% 30.18 in 10.0 mi NNW 15.0 mph - N/A   Overcast